When you browse on this site, cookies collect data to enhance your experience and personalize the content and advertising you see.
Visit our Privacy Policy to learn more. By continuing to use the site, you agree to this use of cookies and data.
  • en France
  • Liste des pays
  • À 7 jours
  • Température de l'eau
  • Carte satellitaire
  • Carte météo
  • Widgets météo
  • user-avatar
    Se connecter

    Météo par heure à Vratsa

    Ce jour, 23 Mars, Samedi

    Heure Température Précipitation Vent Pression Humidité
    00:00 +8°C° 0 mm 1 m/s 714 mmHg 60%
    01:00 +8°C° 0 mm 1 m/s 714 mmHg 58%
    02:00 +7°C° 0 mm 1 m/s 714 mmHg 57%
    03:00 +7°C° 0 mm 1 m/s 714 mmHg 57%
    04:00 +7°C° 0 mm 1 m/s 714 mmHg 56%
    05:00 +7°C° 0 mm 1 m/s 714 mmHg 56%
    06:00 +7°C° 0 mm 1 m/s 714 mmHg 55%
    07:00 +8°C° 0 mm 1 m/s 714 mmHg 55%
    08:00 +9°C° 0 mm 1 m/s 714 mmHg 54%
    09:00 +10°C° 0 mm 1 m/s 714 mmHg 50%
    10:00 +12°C° 0 mm 1 m/s 714 mmHg 47%
    11:00 +14°C° 0 mm 1 m/s 714 mmHg 43%
    12:00 +14°C° 0 mm 2 m/s 714 mmHg 43%
    13:00 +15°C° 0 mm 2 m/s 713 mmHg 42%
    14:00 +16°C° 0 mm 2 m/s 713 mmHg 42%
    15:00 +16°C° 0 mm 2 m/s 713 mmHg 43%
    16:00 +16°C° 0 mm 2 m/s 712 mmHg 45%
    17:00 +15°C° 0 mm 2 m/s 712 mmHg 46%
    18:00 +14°C° 0 mm 2 m/s 712 mmHg 51%
    19:00 +12°C° 0 mm 1 m/s 712 mmHg 57%
    20:00 +11°C° 0 mm 1 m/s 712 mmHg 62%
    21:00 +11°C° 0 mm 1 m/s 713 mmHg 64%
    22:00 +10°C° 0 mm 1 m/s 713 mmHg 65%
    23:00 +10°C° 0 mm 1 m/s 713 mmHg 67%

    Demain, 24 Mars, Dimanche

    Heure Température Précipitation Vent Pression Humidité
    00:00 +9°C° 0 mm 1 m/s 713 mmHg 69%
    01:00 +8°C° 0 mm 1 m/s 713 mmHg 71%
    02:00 +7°C° 0 mm 0 m/s 714 mmHg 73%
    03:00 +7°C° 0 mm 1 m/s 713 mmHg 74%
    04:00 +7°C° 0 mm 1 m/s 713 mmHg 75%
    05:00 +6°C° 0 mm 1 m/s 713 mmHg 76%
    06:00 +6°C° 0 mm 1 m/s 713 mmHg 73%
    07:00 +7°C° 0 mm 1 m/s 713 mmHg 71%
    08:00 +7°C° 0 mm 1 m/s 713 mmHg 69%
    09:00 +9°C° 0 mm 1 m/s 714 mmHg 62%
    10:00 +10°C° 0 mm 1 m/s 714 mmHg 55%
    11:00 +12°C° 0 mm 2 m/s 714 mmHg 48%
    12:00 +13°C° 0 mm 2 m/s 713 mmHg 45%
    13:00 +13°C° 0 mm 2 m/s 713 mmHg 41%
    14:00 +14°C° 0 mm 2 m/s 712 mmHg 38%
    15:00 +14°C° 0 mm 2 m/s 712 mmHg 38%
    16:00 +14°C° 0 mm 1 m/s 711 mmHg 38%
    17:00 +14°C° 0 mm 1 m/s 711 mmHg 38%
    18:00 +12°C° 0 mm 1 m/s 711 mmHg 43%
    19:00 +11°C° 0 mm 1 m/s 711 mmHg 48%
    20:00 +10°C° 0 mm 1 m/s 711 mmHg 52%
    21:00 +9°C° 0 mm 1 m/s 711 mmHg 53%
    22:00 +9°C° 0 mm 1 m/s 711 mmHg 54%
    23:00 +9°C° 0 mm 1 m/s 711 mmHg 54%

    Après-demain, 25 Mars, Lundi

    Heure Température Précipitation Vent Pression Humidité
    00:00 +8°C° 0 mm 1 m/s 710 mmHg 55%
    01:00 +8°C° 0 mm 1 m/s 710 mmHg 56%
    02:00 +7°C° 0 mm 2 m/s 710 mmHg 56%
    03:00 +6°C° 0 mm 2 m/s 709 mmHg 57%
    04:00 +6°C° 0 mm 2 m/s 709 mmHg 59%
    05:00 +6°C° 0 mm 2 m/s 709 mmHg 60%
    06:00 +7°C° 0 mm 2 m/s 709 mmHg 59%
    07:00 +7°C° 0 mm 2 m/s 709 mmHg 59%
    08:00 +8°C° 0 mm 2 m/s 709 mmHg 58%
    09:00 +10°C° 0 mm 2 m/s 708 mmHg 51%
    10:00 +14°C° 0 mm 1 m/s 708 mmHg 44%
    11:00 +16°C° 0 mm 1 m/s 708 mmHg 37%
    12:00 +17°C° 0 mm 2 m/s 708 mmHg 33%
    13:00 +18°C° 0 mm 2 m/s 707 mmHg 30%
    14:00 +19°C° 0 mm 2 m/s 707 mmHg 27%
    15:00 +18°C° 0 mm 2 m/s 706 mmHg 28%
    16:00 +18°C° 0 mm 2 m/s 706 mmHg 28%
    17:00 +18°C° 0 mm 2 m/s 705 mmHg 29%
    18:00 +16°C° 0 mm 2 m/s 705 mmHg 34%
    19:00 +14°C° 0 mm 1 m/s 705 mmHg 38%
    20:00 +12°C° 0 mm 1 m/s 705 mmHg 43%
    21:00 +12°C° 0 mm 1 m/s 705 mmHg 46%
    22:00 +11°C° 0 mm 1 m/s 705 mmHg 48%
    23:00 +10°C° 0 mm 1 m/s 705 mmHg 51%

    26 Mars, Mardi

    Heure Température Précipitation Vent Pression Humidité
    00:00 +10°C° 0 mm 1 m/s 704 mmHg 52%
    01:00 +9°C° 0 mm 2 m/s 704 mmHg 54%
    02:00 +8°C° 0 mm 2 m/s 704 mmHg 56%
    03:00 +8°C° 0 mm 3 m/s 705 mmHg 59%
    04:00 +6°C° 0 mm 4 m/s 705 mmHg 63%
    05:00 +5°C° 0 mm 6 m/s 705 mmHg 66%
    06:00 +4°C° 0.1 mm 6 m/s 706 mmHg 64%
    07:00 +4°C° 0.1 mm 6 m/s 707 mmHg 62%
    08:00 +4°C° 0.1 mm 6 m/s 707 mmHg 60%
    09:00 +5°C° 0 mm 6 m/s 708 mmHg 55%
    10:00 +5°C° 0 mm 6 m/s 708 mmHg 50%
    11:00 +7°C° 0 mm 6 m/s 708 mmHg 45%
    12:00 +7°C° 0 mm 6 m/s 708 mmHg 43%
    13:00 +8°C° 0 mm 6 m/s 708 mmHg 41%
    14:00 +8°C° 0 mm 7 m/s 708 mmHg 40%
    15:00 +7°C° 0 mm 6 m/s 708 mmHg 40%
    16:00 +7°C° 0 mm 5 m/s 708 mmHg 40%
    17:00 +7°C° 0 mm 5 m/s 709 mmHg 40%
    18:00 +6°C° 0 mm 4 m/s 709 mmHg 43%
    19:00 +6°C° 0 mm 4 m/s 709 mmHg 45%
    20:00 +5°C° 0 mm 3 m/s 710 mmHg 48%
    21:00 +5°C° 0.1 mm 3 m/s 710 mmHg 53%
    22:00 +5°C° 0.1 mm 2 m/s 710 mmHg 59%
    23:00 +5°C° 0.1 mm 2 m/s 711 mmHg 65%

    27 Mars, Mercredi

    Heure Température Précipitation Vent Pression Humidité
    00:00 +4°C° 0.4 mm 2 m/s 711 mmHg 70%
    01:00 +4°C° 0.4 mm 2 m/s 711 mmHg 75%
    02:00 +4°C° 0.4 mm 1 m/s 711 mmHg 80%
    03:00 +4°C° 0.3 mm 1 m/s 711 mmHg 81%
    04:00 +4°C° 0.3 mm 1 m/s 712 mmHg 81%
    05:00 +3°C° 0.3 mm 2 m/s 712 mmHg 82%
    06:00 +3°C° 0.1 mm 2 m/s 712 mmHg 78%
    07:00 +3°C° 0.1 mm 2 m/s 712 mmHg 74%
    08:00 +3°C° 0.1 mm 2 m/s 713 mmHg 70%
    09:00 +4°C° 0 mm 2 m/s 713 mmHg 64%
    10:00 +5°C° 0 mm 2 m/s 713 mmHg 58%
    11:00 +6°C° 0 mm 2 m/s 713 mmHg 52%
    12:00 +6°C° 0 mm 2 m/s 713 mmHg 50%
    13:00 +7°C° 0 mm 2 m/s 713 mmHg 49%
    14:00 +8°C° 0 mm 2 m/s 713 mmHg 47%
    15:00 +8°C° 0 mm 2 m/s 712 mmHg 47%
    16:00 +7°C° 0 mm 2 m/s 712 mmHg 46%
    17:00 +7°C° 0 mm 2 m/s 712 mmHg 46%
    18:00 +7°C° 0 mm 1 m/s 713 mmHg 50%
    19:00 +6°C° 0 mm 1 m/s 713 mmHg 54%
    20:00 +5°C° 0 mm 1 m/s 713 mmHg 58%
    21:00 +5°C° 0 mm 1 m/s 713 mmHg 58%
    22:00 +4°C° 0 mm 1 m/s 714 mmHg 59%
    23:00 +4°C° 0 mm 1 m/s 714 mmHg 59%

    28 Mars, Jeudi

    Heure Température Précipitation Vent Pression Humidité
    00:00 +3°C° 0 mm 1 m/s 714 mmHg 60%
    01:00 +3°C° 0 mm 1 m/s 714 mmHg 61%
    02:00 +3°C° 0 mm 1 m/s 714 mmHg 61%
    03:00 +2°C° 0 mm 1 m/s 714 mmHg 62%
    04:00 +2°C° 0 mm 1 m/s 714 mmHg 64%
    05:00 +1°C° 0 mm 1 m/s 714 mmHg 65%
    06:00 +2°C° 0 mm 1 m/s 715 mmHg 62%
    07:00 +3°C° 0 mm 1 m/s 715 mmHg 59%
    08:00 +4°C° 0 mm 1 m/s 716 mmHg 57%
    09:00 +5°C° 0 mm 1 m/s 716 mmHg 54%
    10:00 +5°C° 0 mm 2 m/s 716 mmHg 51%
    11:00 +6°C° 0 mm 2 m/s 716 mmHg 48%
    12:00 +7°C° 0 mm 2 m/s 716 mmHg 48%
    13:00 +8°C° 0 mm 3 m/s 716 mmHg 48%
    14:00 +8°C° 0 mm 3 m/s 715 mmHg 48%
    15:00 +8°C° 0 mm 3 m/s 715 mmHg 48%
    16:00 +7°C° 0 mm 3 m/s 715 mmHg 49%
    17:00 +7°C° 0 mm 3 m/s 715 mmHg 49%
    18:00 +6°C° 0 mm 2 m/s 715 mmHg 53%
    19:00 +5°C° 0 mm 2 m/s 715 mmHg 56%
    20:00 +4°C° 0 mm 1 m/s 715 mmHg 59%
    21:00 +4°C° 0 mm 1 m/s 716 mmHg 58%
    22:00 +4°C° 0 mm 1 m/s 716 mmHg 57%
    23:00 +3°C° 0 mm 1 m/s 716 mmHg 56%
    Voir plus